星链-37176(STARLINK-37176)

导读

STARLINK-37176(NORAD编号68615)是SpaceX星链星座中的一颗低轨通信卫星,归属星链全球卫星互联网组网计划。这类卫星运行于约550公里高度的近地轨道,通过星间链路与地面系统配合,为全球偏远地区、海洋与航空场景提供宽带互联网接入服务。星链项目依托SpaceX可重复发射技术,实现批量制造发射,单颗卫星制造成本已压缩至百万美元级别,截至2026年星链全球用户已突破千万规模,该卫星作为组网卫星持续为星座覆盖能力提供支撑。

Basic Information
目录编号:
68615
目录名称:
STARLINK-37176
国际标识:
2026-073P
轨道中心:
EARTH
卫星名称:
星链-37176
卫星全名:
星链-37176(STARLINK-37176)
卫星状态:
在轨 (已飞行69 天)
发射日期:
2026-04-05 UTC
国别 :
美国 (US)
星等 :
--
Orbit Information
数据来源 国际轨道数据 AOE轨道数据
星历时间 2026-06-12T09:40:13+0800
23小时前
查看轨道信息
2026-06-12T07:00:00+0800
1天前
查看轨道信息
半长轴 6843.597km 6843.648km
偏心率 0.0001993 0.0001762
轨道倾角 97.285° 97.287°
近地点辐角 99.979° 93.443°
升交点赤经 2.575° 2.464°
平近点角 260.168° 12.858°
近地点 464.096km 464.305km
远地点 466.824km 466.717km
周期 93.904分钟 93.906分钟
每日圈数 15.334731 15.334559
Detailed Information
固有亮度:
5
最大亮度:
2.5
卫星平台:
Starlink V1.0
覆盖范围:
全球
运营商:
太空探索技术公司
运营商所在国:
美国
制造商(研发单位):
太空探索技术公司
制造商所在国:
美国
使用方式:
暂无
Satellite Introduction
Starlink 计划是 SpaceX 推出的全球卫星互联网项目,通过发射低轨道卫星,为全球尤其是偏远地区提供高速、低延迟的互联网服务。自 2019 年起,Starlink 已部署数千颗卫星,旨在缩小全球数字鸿沟,推动互联网普及。该项目还为军事、航空等行业提供通信支持,带来广泛经济效益。
2D Orbit Map
3D Orbit Map
Orbit Altitude Analysis Chart
Orbit Inclination Analysis Chart
Orbit Comprehensive Analysis Chart
View Comprehensive Chart